TimeEST,TemperatureF,Dew PointF,Humidity,Sea Level PressureIn,VisibilityMPH,Wind Direction,Wind SpeedMPH,Gust SpeedMPH,PrecipitationIn,Events,Conditions,WindDirDegrees,DateUTC
12:15 AM,8.6,3.2,79,30.07,10.0,WSW,9.2,16.1,N/A,,Overcast,240,2013-02-02 05:15:00
12:35 AM,8.6,3.2,79,30.07,10.0,WSW,5.8,-,N/A,,Scattered Clouds,240,2013-02-02 05:35:00
12:55 AM,6.8,3.2,85,30.07,10.0,WSW,8.1,-,N/A,,Clear,240,2013-02-02 05:55:00
1:15 AM,6.8,1.4,79,30.07,10.0,SW,6.9,-,N/A,Snow,Light Snow,230,2013-02-02 06:15:00
1:35 AM,5.0,1.4,85,30.06,10.0,SW,8.1,-,N/A,Snow,Light Snow,230,2013-02-02 06:35:00
1:55 AM,6.8,1.4,79,30.06,10.0,SW,6.9,-,N/A,,Overcast,230,2013-02-02 06:55:00
2:15 AM,8.6,3.2,79,30.07,10.0,WSW,8.1,-,N/A,,Overcast,240,2013-02-02 07:15:00
2:35 AM,8.6,3.2,79,30.06,10.0,SW,6.9,-,N/A,,Overcast,230,2013-02-02 07:35:00
2:55 AM,8.6,3.2,79,30.06,10.0,WSW,4.6,-,N/A,,Overcast,240,2013-02-02 07:55:00
3:15 AM,8.6,1.4,73,30.05,10.0,WSW,9.2,-,N/A,,Overcast,240,2013-02-02 08:15:00
3:35 AM,8.6,1.4,73,30.05,10.0,WSW,10.4,16.1,N/A,,Overcast,240,2013-02-02 08:35:00
3:55 AM,8.6,1.4,73,30.04,10.0,WSW,9.2,16.1,N/A,,Overcast,240,2013-02-02 08:55:00
4:15 AM,8.6,1.4,73,30.04,10.0,SW,10.4,18.4,N/A,,Overcast,230,2013-02-02 09:15:00
4:35 AM,8.6,3.2,79,30.04,10.0,SW,9.2,-,N/A,,Overcast,230,2013-02-02 09:35:00
4:55 AM,6.8,1.4,79,30.03,10.0,WSW,8.1,-,N/A,,Overcast,240,2013-02-02 09:55:00
5:15 AM,6.8,1.4,79,30.03,10.0,SW,8.1,-,N/A,Snow,Light Snow,220,2013-02-02 10:15:00
5:35 AM,6.8,1.4,79,30.03,10.0,SW,8.1,-,N/A,,Overcast,220,2013-02-02 10:35:00
5:55 AM,6.8,1.4,79,30.02,10.0,SSW,12.7,17.3,N/A,,Overcast,210,2013-02-02 10:55:00
6:15 AM,6.8,1.4,79,30.01,10.0,SW,10.4,19.6,N/A,,Overcast,220,2013-02-02 11:15:00
6:35 AM,6.8,1.4,79,30.02,10.0,SW,11.5,19.6,N/A,,Overcast,220,2013-02-02 11:35:00
6:55 AM,6.8,1.4,79,30.02,10.0,SW,9.2,-,N/A,,Overcast,230,2013-02-02 11:55:00
7:15 AM,6.8,1.4,79,30.01,10.0,SSW,11.5,18.4,N/A,Snow,Light Snow,210,2013-02-02 12:15:00
7:35 AM,6.8,1.4,79,30.01,10.0,SW,11.5,17.3,N/A,,Overcast,220,2013-02-02 12:35:00
7:55 AM,6.8,1.4,79,30.01,10.0,SW,15.0,20.7,N/A,,Overcast,220,2013-02-02 12:55:00
8:15 AM,8.6,1.4,73,30.00,10.0,SW,12.7,16.1,N/A,,Overcast,220,2013-02-02 13:15:00
8:35 AM,8.6,3.2,79,30.00,10.0,SSW,11.5,-,N/A,,Overcast,210,2013-02-02 13:35:00
8:55 AM,8.6,3.2,79,29.99,7.0,SW,9.2,-,N/A,Snow,Light Snow,220,2013-02-02 13:55:00
9:15 AM,8.6,3.2,79,29.99,7.0,SSW,11.5,-,N/A,,Overcast,210,2013-02-02 14:15:00
9:35 AM,8.6,3.2,79,29.99,5.0,SW,9.2,16.1,N/A,,Haze,220,2013-02-02 14:35:00
9:55 AM,10.4,3.2,73,29.97,4.0,SSW,9.2,-,N/A,Snow,Light Snow,210,2013-02-02 14:55:00
10:15 AM,10.4,3.2,73,29.97,5.0,SSW,5.8,-,N/A,Snow,Light Snow,210,2013-02-02 15:15:00
10:35 AM,10.4,3.2,73,29.96,5.0,SSW,10.4,16.1,N/A,,Haze,200,2013-02-02 15:35:00
10:55 AM,10.4,3.2,73,29.96,7.0,SSW,6.9,-,N/A,Snow,Light Snow,210,2013-02-02 15:55:00
11:15 AM,12.2,5.0,73,29.95,5.0,SSW,9.2,-,N/A,Snow,Light Snow,210,2013-02-02 16:15:00
11:35 AM,12.2,5.0,73,29.94,3.0,SSW,5.8,-,N/A,Snow,Light Snow,210,2013-02-02 16:35:00
11:55 AM,12.2,5.0,73,29.94,7.0,SSW,9.2,-,N/A,Snow,Light Snow,200,2013-02-02 16:55:00
12:15 PM,12.2,6.8,79,29.92,2.0,SW,10.4,16.1,N/A,Snow,Light Snow,220,2013-02-02 17:15:00
12:35 PM,14.0,8.6,79,29.91,1.5,SSW,6.9,-,N/A,Snow,Light Snow,210,2013-02-02 17:35:00
12:55 PM,14.0,6.8,73,29.90,2.5,SSW,10.4,-,N/A,Snow,Light Snow,210,2013-02-02 17:55:00
1:15 PM,14.0,6.8,73,29.89,3.0,SW,10.4,17.3,N/A,Snow,Light Snow,230,2013-02-02 18:15:00
1:35 PM,14.0,8.6,79,29.88,3.0,SW,8.1,-,N/A,Snow,Light Snow,220,2013-02-02 18:35:00
1:55 PM,14.0,8.6,79,29.88,3.0,SW,5.8,-,N/A,Snow,Light Snow,230,2013-02-02 18:55:00
2:15 PM,14.0,8.6,79,29.87,2.0,WSW,4.6,-,N/A,Snow,Light Snow,240,2013-02-02 19:15:00
2:35 PM,14.0,8.6,79,29.87,2.5,SSW,8.1,-,N/A,Snow,Light Snow,210,2013-02-02 19:35:00
2:55 PM,14.0,8.6,79,29.86,3.0,SSW,6.9,-,N/A,Snow,Light Snow,210,2013-02-02 19:55:00
3:15 PM,14.0,8.6,79,29.86,3.0,SW,9.2,-,N/A,Snow,Light Snow,220,2013-02-02 20:15:00
3:35 PM,14.0,8.6,79,29.85,2.5,SSW,10.4,-,N/A,Snow,Light Snow,210,2013-02-02 20:35:00
3:55 PM,14.0,10.4,86,29.86,2.5,SW,6.9,-,N/A,Snow,Light Snow,220,2013-02-02 20:55:00
4:15 PM,14.0,10.4,86,29.86,2.0,SW,6.9,-,N/A,Snow,Light Snow,220,2013-02-02 21:15:00
4:35 PM,14.0,10.4,86,29.85,2.0,SSW,5.8,-,N/A,Snow,Light Snow,210,2013-02-02 21:35:00
4:55 PM,14.0,12.2,93,29.85,1.5,SSW,5.8,-,N/A,Snow,Light Snow,210,2013-02-02 21:55:00
5:15 PM,14.0,12.2,93,29.85,1.2,SSW,6.9,-,N/A,Snow,Light Snow,210,2013-02-02 22:15:00
5:35 PM,14.0,10.4,86,29.85,2.5,SW,5.8,-,N/A,Snow,Light Snow,230,2013-02-02 22:35:00
5:55 PM,14.0,10.4,86,29.85,5.0,SW,5.8,-,N/A,Snow,Light Snow,220,2013-02-02 22:55:00
6:15 PM,14.0,10.4,86,29.86,7.0,SW,4.6,-,N/A,Snow,Light Snow,220,2013-02-02 23:15:00
6:35 PM,14.0,12.2,93,29.86,4.0,SSW,3.5,-,N/A,Snow,Light Snow,210,2013-02-02 23:35:00
6:55 PM,14.0,12.2,93,29.86,3.0,Calm,Calm,-,N/A,Snow,Light Snow,0,2013-02-02 23:55:00
7:15 PM,14.0,12.2,93,29.86,3.0,Calm,Calm,-,N/A,Snow,Light Snow,0,2013-02-03 00:15:00
7:35 PM,14.0,12.2,93,29.86,3.0,Calm,Calm,-,N/A,Snow,Light Snow,0,2013-02-03 00:35:00
7:55 PM,14.0,12.2,93,29.86,4.0,Calm,Calm,-,N/A,Snow,Light Snow,0,2013-02-03 00:55:00
8:15 PM,14.0,12.2,93,29.86,3.0,SSW,3.5,-,N/A,Snow,Light Snow,200,2013-02-03 01:15:00
8:35 PM,14.0,12.2,93,29.86,3.0,SSW,3.5,-,N/A,Snow,Light Snow,200,2013-02-03 01:35:00
8:55 PM,14.0,12.2,93,29.86,2.5,SSW,3.5,-,N/A,Snow,Light Snow,200,2013-02-03 01:55:00
9:15 PM,14.0,12.2,93,29.85,2.5,Calm,Calm,-,N/A,Snow,Light Snow,0,2013-02-03 02:15:00
9:35 PM,14.0,12.2,93,29.85,2.0,Calm,Calm,-,N/A,Snow,Light Snow,0,2013-02-03 02:35:00
9:55 PM,14.0,12.2,93,29.85,10.0,Calm,Calm,-,N/A,Snow,Light Snow,0,2013-02-03 02:55:00
10:15 PM,12.2,12.2,100,29.85,7.0,Calm,Calm,-,N/A,Snow,Light Snow,0,2013-02-03 03:15:00
10:35 PM,12.2,10.4,92,29.84,10.0,SSW,3.5,-,N/A,Snow,Light Snow,200,2013-02-03 03:35:00
10:55 PM,12.2,10.4,92,29.84,10.0,SSW,3.5,-,N/A,,Overcast,200,2013-02-03 03:55:00
11:15 PM,12.2,10.4,92,29.84,10.0,SSW,3.5,-,N/A,,Overcast,200,2013-02-03 04:15:00
11:35 PM,12.2,10.4,92,29.83,10.0,South,3.5,-,N/A,,Overcast,190,2013-02-03 04:35:00
11:55 PM,12.2,10.4,92,29.83,10.0,SSW,3.5,-,N/A,,Overcast,200,2013-02-03 04:55:00